Theta_e
315 314 314 314 314 314 314 314 313 311 310 311 309 310 312 312 309 322 323 322 319 310 305 311 309 304 307 313 312 314 313 312 312 310 310 307 310 308 307 308 306 308 306 305 302 304 299 301 300 303 302 304 305 306 306 308 308 306 304 307 304 323 300 297 299 301 304 307 308 309 310 310 304 305 306 305 302 302 299 297 300 299 299 297 297 295 299
315 314 314 314 314 314 314 314 313 312 310 310 309 309 309 309 310 314 321 322 319 308 302 301 302 305 310 311 311 314 313 310 309 310 310 310 308 310 309 308 309 309 309 307 304 305 299 306 304 299 303 301 308 307 308 312 308 307 306 302 306 303 301 297 296 294 297 300 303 303 307 305 302 301 301 305 306 306 304 302 300 297 301 300 295 292 297
315 314 314 314 314 314 314 314 313 312 311 312 309 308 309 307 313 313 316 320 316 305 306 305 303 306 306 307 306 308 311 310 310 312 310 310 308 307 306 309 308 308 309 308 307 308 306 303 307 307 305 304 311 307 308 310 308 316 327 334 309 302 305 298 294 292 290 290 290 293 295 300 302 304 304 305 305 304 303 300 301 291 302 303 296 296 302
314 314 314 313 314 314 314 314 313 312 312 311 311 310 309 308 306 313 313 315 313 311 313 311 307 306 306 304 306 309 308 310 312 312 310 311 309 308 309 308 308 308 308 306 306 306 310 306 306 306 306 308 308 309 308 313 312 330 344 324 312 305 307 303 298 296 295 296 298 303 308 302 299 302 302 303 305 305 303 298 295 295 298 301 301 304 306
315 315 314 314 314 314 314 314 314 312 311 311 311 310 309 311 307 310 305 311 310 309 310 310 310 305 308 300 307 306 308 310 310 311 308 311 310 310 309 311 307 306 307 306 305 309 309 309 308 308 308 310 310 312 312 310 328 346 325 321 306 301 298 301 306 304 302 302 303 305 307 302 302 301 302 304 303 305 303 299 298 304 301 297 306 308 308
315 315 316 315 315 316 315 313 312 311 311 310 311 313 314 308 313 314 315 305 300 307 308 310 311 313 312 305 308 306 308 309 307 308 310 310 309 305 307 311 309 308 307 307 304 307 308 308 306 309 309 308 309 309 313 310 328 319 308 312 304 300 298 301 303 300 302 302 303 304 304 303 302 302 302 302 304 304 303 302 303 304 297 296 306 310 308
315 315 315 316 316 316 316 315 312 310 309 310 313 313 316 313 313 313 317 309 311 312 314 316 314 311 311 306 314 308 308 308 311 311 310 310 309 308 305 308 311 310 310 308 305 308 303 304 310 306 305 307 307 306 309 312 314 312 307 307 308 301 299 300 303 301 302 303 303 305 303 303 303 303 303 303 304 303 304 304 306 308 307 308 307 307 309
315 315 315 316 316 316 316 315 313 311 309 312 315 315 310 308 308 306 313 313 311 313 313 313 311 306 313 304 307 308 308 308 311 313 310 307 309 312 308 308 312 312 311 309 306 307 310 307 305 310 306 304 306 304 310 304 308 310 308 310 307 301 300 319 304 300 299 303 306 304 304 301 300 302 303 304 304 303 304 307 311 312 308 310 310 309 310
315 315 315 316 316 316 317 316 314 312 311 313 313 315 315 315 316 315 308 306 309 315 313 310 309 304 307 307 309 310 308 309 310 310 314 311 310 311 308 309 311 312 311 310 309 310 310 309 310 312 309 304 309 304 306 307 304 307 307 307 308 305 299 304 302 297 296 301 303 303 304 303 300 300 302 304 303 301 306 308 311 308 306 309 310 308 310
315 315 315 316 316 316 317 316 315 313 313 311 309 310 315 316 317 318 313 306 319 310 313 311 310 305 310 312 310 309 310 312 312 307 313 314 314 313 312 310 309 309 309 308 310 311 311 311 311 311 310 310 310 308 308 308 307 305 305 308 306 303 303 301 298 296 295 301 303 303 301 298 297 300 303 306 305 307 312 314 315 313 313 310 307 307 312
316 315 315 316 316 316 317 316 316 315 315 310 308 309 312 311 310 311 313 307 310 312 311 309 310 314 312 313 311 311 311 311 312 306 308 313 313 314 313 311 308 306 308 312 315 314 313 313 313 312 311 310 310 310 310 310 309 308 308 305 307 308 305 301 302 297 296 301 302 301 295 291 294 305 308 310 311 312 311 311 313 314 313 309 311 313 316
316 315 315 316 316 316 317 317 316 316 314 314 313 310 313 315 312 311 308 305 306 314 310 309 310 311 311 312 311 308 307 308 309 311 309 310 311 312 312 310 310 306 313 316 313 314 315 316 314 313 312 310 309 309 309 308 308 311 308 307 305 305 306 300 302 301 295 299 299 296 291 294 304 309 313 314 314 314 312 312 314 315 317 318 317 317 318
315 315 315 315 316 316 316 317 316 316 315 314 313 309 314 316 311 310 309 306 304 309 307 309 314 313 313 312 311 311 311 311 311 312 311 310 309 310 311 311 310 314 317 313 313 312 309 307 306 306 307 308 308 308 308 307 307 309 308 307 306 303 302 302 301 300 298 295 294 290 290 303 310 313 315 319 312 312 314 311 312 313 317 319 317 319 321
315 315 316 316 316 316 317 317 317 317 315 312 312 311 313 315 310 308 307 304 304 310 313 310 312 311 311 311 312 311 312 310 309 311 309 313 311 312 314 316 314 314 314 313 310 307 302 302 299 301 301 304 303 303 305 307 307 307 307 309 307 306 304 304 298 302 296 296 295 295 303 303 306 309 312 313 308 307 310 305 308 313 317 319 318 319 321
315 315 316 315 315 316 317 317 317 317 315 312 312 313 313 315 316 312 310 308 304 308 310 305 309 311 311 310 311 308 307 308 307 306 311 313 312 315 315 316 318 316 313 308 304 305 303 303 297 296 297 297 294 298 307 304 308 307 307 308 308 304 303 300 300 299 299 297 292 293 293 293 299 310 315 319 319 313 316 314 307 315 316 323 321 320 322
314 315 316 315 315 316 317 317 316 316 316 313 312 311 313 316 318 316 311 306 304 301 308 314 315 313 308 310 310 309 305 305 306 304 305 307 310 316 317 318 318 315 312 310 308 305 305 299 296 296 292 295 302 301 300 304 303 308 308 307 307 306 306 304 301 298 299 297 294 292 293 296 307 312 315 318 320 315 317 311 304 313 316 322 324 325 327
315 315 316 315 315 316 317 316 316 316 316 312 310 311 311 317 315 313 310 308 308 306 315 317 316 313 306 305 309 308 309 305 306 301 300 303 307 313 314 317 317 314 311 306 305 302 298 299 301 299 298 303 299 298 302 301 300 303 308 309 308 305 303 302 300 300 299 296 295 292 299 302 310 314 316 318 320 317 309 297 298 312 318 322 327 326 327
314 314 316 315 315 316 317 316 316 316 316 312 311 310 311 317 318 317 312 309 305 305 311 316 313 308 306 307 307 311 312 310 309 308 304 306 310 309 311 312 310 314 316 306 306 300 300 298 296 296 295 303 307 305 295 302 299 300 301 303 302 302 306 302 298 297 302 302 295 297 304 312 315 315 318 319 319 312 300 295 304 315 319 324 329 329 329
314 314 315 315 315 316 316 316 316 316 316 312 312 312 314 318 319 317 313 309 307 304 313 316 317 315 316 316 313 314 313 312 310 304 304 303 307 312 312 313 315 306 312 306 301 301 298 299 302 300 297 298 305 301 304 300 300 303 305 299 298 300 303 304 304 301 298 299 295 296 302 309 314 318 319 319 313 301 302 310 315 319 321 325 329 330 330
313 315 315 315 315 315 316 316 316 317 316 315 312 307 312 316 319 319 311 306 306 304 310 311 315 313 316 311 306 304 307 307 307 305 303 300 308 311 306 303 308 308 306 307 301 306 299 299 301 304 299 299 303 310 301 302 307 304 303 307 300 302 299 299 301 304 303 301 298 295 291 307 317 317 316 319 307 308 314 318 320 322 324 328 329 329 329
314 315 316 315 315 315 316 316 316 316 317 316 313 310 311 318 320 320 317 311 305 301 305 316 317 313 314 312 313 312 310 306 306 304 307 307 310 306 296 300 301 304 304 305 301 302 305 301 302 304 307 306 305 305 298 300 302 308 309 306 306 309 299 299 301 306 298 298 297 298 304 310 320 316 309 316 317 319 321 320 317 320 325 328 328 329 330
314 315 316 315 315 315 315 315 316 316 316 316 314 311 309 316 319 320 320 315 306 304 307 314 316 314 316 317 316 316 314 313 315 314 309 305 308 306 305 307 309 307 311 312 306 306 306 306 307 302 299 301 305 301 303 298 296 304 309 308 299 308 308 306 301 308 304 302 305 313 316 317 318 319 319 320 322 323 323 323 321 322 324 330 329 331 333
313 315 316 315 315 315 315 316 316 316 316 316 313 307 306 311 315 319 317 308 310 313 315 314 315 316 318 319 320 321 319 317 316 314 313 307 303 306 306 305 305 312 315 312 306 305 306 305 302 305 302 304 304 301 300 301 300 302 301 309 309 313 312 312 308 308 313 314 316 320 315 316 317 320 322 321 323 326 328 326 324 325 327 329 330 332 332
313 314 315 315 315 315 315 316 316 316 315 315 313 306 306 311 313 316 313 311 309 305 309 313 310 305 309 312 317 319 320 318 319 317 317 312 303 301 307 309 312 313 310 312 313 308 306 307 307 306 300 303 305 299 298 295 299 303 303 302 307 312 311 309 306 311 304 300 312 316 317 316 316 317 321 324 325 326 329 328 328 328 330 332 334 333 333
313 314 314 315 315 315 315 315 316 316 315 314 313 311 312 312 315 315 310 305 305 301 299 304 307 313 318 319 318 316 317 320 326 318 315 314 308 305 304 309 314 308 308 311 313 308 307 304 302 302 299 304 307 298 304 300 297 305 298 300 303 304 314 307 308 308 305 306 312 316 318 317 317 315 314 317 323 326 328 329 330 331 333 335 334 334 334
313 313 314 314 314 315 315 315 316 316 315 314 313 307 306 307 312 316 314 312 309 306 301 300 307 318 319 316 314 316 318 319 314 315 316 315 315 313 311 313 310 313 312 314 312 310 306 304 304 303 299 299 307 301 300 303 302 306 303 302 306 308 316 303 308 306 309 313 315 316 317 315 315 315 314 316 322 325 325 327 328 329 330 333 335 336 335
313 313 313 314 314 314 315 315 316 315 315 314 312 309 308 310 314 314 310 311 304 303 303 299 306 312 315 312 316 318 318 314 311 310 312 313 312 311 311 311 310 308 309 307 310 309 307 305 303 301 303 301 306 304 304 302 304 301 299 304 309 306 302 307 305 302 304 305 308 314 308 307 310 312 313 314 321 326 325 326 326 325 326 329 333 333 336
313 313 313 314 314 314 315 315 315 315 314 313 312 310 310 310 314 317 315 315 308 301 300 300 302 308 314 311 318 316 315 316 311 310 309 309 310 309 309 308 307 305 306 306 302 303 302 300 298 304 306 305 303 300 305 303 305 303 304 302 307 305 307 305 303 300 301 310 313 315 314 313 314 314 313 314 317 323 324 324 323 323 322 326 332 332 332
313 313 313 314 314 314 314 315 315 315 314 312 310 310 310 312 316 314 313 315 314 308 305 307 308 306 301 307 315 313 315 312 309 308 309 309 310 309 307 307 306 306 307 306 305 304 302 302 306 304 303 310 305 301 303 297 297 296 300 306 309 310 311 310 310 309 311 313 311 312 310 308 312 313 313 313 315 317 323 325 325 323 322 322 324 331 333
313 313 313 314 314 314 314 314 315 314 313 310 307 308 307 312 314 312 313 313 312 311 302 299 297 303 311 312 311 313 314 313 311 311 309 306 307 306 306 306 307 309 306 305 304 300 303 305 307 307 310 313 305 304 302 299 298 299 307 309 309 309 309 312 314 311 308 312 314 314 312 313 314 314 314 314 319 319 317 317 320 322 325 324 321 322 332
314 313 313 313 313 314 314 314 315 314 312 307 303 301 301 302 309 315 314 312 311 309 304 301 298 305 305 311 312 310 311 312 308 307 307 306 305 305 307 309 308 310 304 304 302 301 305 300 303 305 309 313 309 304 300 299 297 298 305 308 308 311 310 311 313 314 315 315 316 315 314 313 313 311 311 313 315 315 315 315 318 328 327 320 317 322 328
313 313 313 313 313 314 314 315 315 314 308 305 302 302 302 306 310 313 313 312 311 309 303 298 298 299 301 307 311 314 309 309 311 310 307 309 306 308 307 308 305 307 307 303 306 305 303 303 305 304 305 314 312 303 302 299 297 300 306 307 310 311 312 312 312 313 314 314 313 310 310 311 314 311 309 314 315 315 314 314 315 315 323 319 319 322 329
313 313 313 313 313 313 314 315 315 314 308 310 314 314 314 314 315 314 313 310 309 307 308 300 295 300 298 301 308 310 312 305 304 305 305 307 305 307 305 310 308 307 327 308 301 298 305 306 307 304 306 311 305 304 303 300 302 307 308 311 311 313 312 312 313 313 314 314 314 310 308 311 313 316 318 318 318 317 315 315 316 318 319 319 319 320 321
313 313 313 313 313 314 314 314 314 313 313 307 303 306 312 316 314 314 313 312 307 308 307 300 298 296 298 306 303 304 307 301 301 305 300 309 312 306 304 306 309 304 306 301 304 304 304 306 301 300 304 303 306 302 298 301 305 306 307 308 310 313 312 312 312 313 315 316 317 317 316 317 319 319 319 319 318 319 321 320 320 319 319 320 320 321 321
314 313 313 313 313 313 313 312 308 309 306 307 307 310 312 317 314 315 316 310 301 302 303 303 300 294 294 297 299 300 309 306 301 303 302 305 315 304 306 303 302 300 303 308 304 301 301 303 304 301 297 301 300 296 298 301 303 307 308 309 312 311 311 311 311 313 316 317 317 317 319 319 317 317 317 318 319 319 320 320 320 319 318 318 320 320 321
313 313 313 313 312 312 310 310 306 307 306 307 310 319 321 320 314 311 311 313 308 300 298 300 301 295 297 294 292 302 310 303 305 306 306 307 302 309 306 302 298 299 308 302 297 302 300 307 303 295 298 297 296 299 299 304 306 308 310 312 314 312 311 311 312 315 316 318 317 317 317 318 317 317 317 318 319 319 319 320 320 319 318 318 319 320 321
313 313 313 312 310 308 304 306 313 312 309 314 318 320 320 319 317 315 313 311 313 312 302 299 296 297 300 298 301 305 305 297 303 301 303 300 299 307 303 300 294 305 303 301 300 300 301 311 301 297 297 294 297 302 305 308 306 310 312 314 316 316 316 315 316 316 315 316 316 315 316 316 316 315 316 317 318 320 319 319 319 318 318 319 320 320 320
313 312 307 305 304 303 304 305 309 313 318 317 318 312 308 311 301 304 306 302 306 311 302 302 296 299 302 300 297 304 302 298 301 299 300 305 300 299 303 301 299 305 293 296 300 306 304 303 299 296 296 300 304 309 310 310 313 314 315 316 317 317 316 316 315 313 311 310 311 311 314 313 314 315 315 316 319 319 319 319 320 321 321 321 320 322 322
310 306 305 305 303 301 303 307 316 318 313 315 314 306 302 306 302 300 300 301 304 297 303 300 296 299 300 299 299 306 302 298 296 299 295 302 299 296 302 294 302 301 294 296 298 307 296 296 299 299 295 300 308 310 314 314 315 315 317 317 318 317 317 316 315 313 311 310 312 314 313 312 312 313 315 316 316 318 319 318 319 320 320 319 320 322 322
304 302 304 305 304 305 315 316 317 314 314 306 306 302 299 303 297 296 303 297 296 300 302 296 300 300 303 299 297 297 309 301 294 296 297 297 305 297 301 298 301 298 292 292 296 306 296 294 295 296 295 305 308 313 312 314 315 315 316 316 317 317 316 315 316 316 316 316 316 317 317 318 319 315 316 316 317 315 317 318 318 318 318 318 324 323 321
304 305 308 307 308 308 310 313 311 309 306 301 302 302 299 295 299 301 299 294 293 296 304 301 301 300 302 301 300 297 303 311 305 304 300 295 305 303 296 294 302 294 293 291 299 301 298 296 295 293 293 304 308 312 314 314 314 315 316 317 317 316 316 315 316 317 316 315 315 316 317 319 317 318 319 319 318 317 317 318 318 319 319 319 319 321 323
310 308 309 309 309 309 309 308 306 303 303 303 296 292 295 296 301 299 298 292 293 298 299 301 298 297 297 299 299 305 304 309 306 306 297 293 302 298 296 297 298 292 289 296 302 298 295 292 291 293 305 309 312 313 312 312 314 313 314 315 317 316 315 315 315 315 317 315 315 316 317 317 317 317 318 318 317 317 318 318 319 319 319 320 323 322 323
313 313 310 305 305 305 306 297 301 302 289 294 288 282 290 292 294 293 295 299 303 300 299 307 304 305 305 307 303 305 304 309 302 301 298 296 302 301 296 294 294 288 294 301 297 293 291 290 291 295 305 309 311 311 311 312 313 314 315 314 314 315 316 315 315 315 317 317 317 316 317 317 317 319 321 319 318 318 318 319 320 320 320 321 321 322 322
310 311 306 306 302 303 301 287 302 299 293 292 286 281 287 289 291 296 295 295 299 299 300 298 299 299 296 302 301 301 303 304 307 302 299 302 297 295 294 291 291 296 301 296 294 290 291 293 295 300 305 310 314 311 310 312 312 312 312 313 314 315 315 314 315 315 315 316 316 317 317 316 317 318 319 318 320 317 317 317 320 322 322 321 320 321 322
303 303 303 299 292 303 298 284 299 292 282 286 292 292 292 288 291 294 293 300 302 298 301 302 301 301 300 303 304 303 303 299 304 298 296 299 295 295 292 291 297 297 293 289 291 291 293 293 303 307 307 307 309 311 312 311 311 311 311 313 314 313 313 313 313 314 314 314 315 316 315 315 315 315 316 316 317 319 318 317 318 320 319 320 320 320 320
301 297 293 287 287 292 288 283 286 286 293 296 294 294 294 295 297 299 301 304 300 302 302 302 304 305 301 304 296 295 300 301 297 298 300 297 292 290 296 300 299 293 291 290 289 287 290 292 302 304 307 308 308 310 310 312 312 313 311 310 311 312 313 314 313 313 313 313 314 313 314 314 314 314 314 315 316 317 317 318 319 319 319 319 319 319 320
302 305 300 295 286 287 296 287 289 292 296 297 298 299 298 299 301 301 302 302 300 302 303 304 302 303 298 299 298 296 301 299 295 300 297 292 291 294 301 293 289 289 288 287 288 290 292 297 303 306 308 308 309 311 311 311 312 311 311 312 312 311 312 313 312 312 312 314 313 313 313 313 314 314 315 314 315 315 318 319 319 319 319 319 319 319 319
294 305 302 287 283 287 289 292 296 297 298 299 298 299 300 300 298 298 302 302 302 302 302 303 300 299 297 302 297 292 295 298 294 295 298 296 298 294 291 291 289 292 292 290 290 293 295 302 306 308 310 311 309 309 310 311 312 312 311 311 310 310 311 311 311 311 313 312 312 312 313 313 313 314 314 314 315 316 316 317 318 318 318 318 318 318 318
305 298 288 289 296 295 294 297 296 294 295 297 299 299 299 299 299 299 302 304 302 300 302 299 300 298 294 300 296 295 293 296 290 290 298 295 290 287 288 286 288 287 293 296 295 296 299 305 310 309 309 308 308 310 310 310 311 311 313 311 310 310 311 311 311 312 314 313 312 312 313 314 314 314 314 314 313 314 315 315 315 315 316 316 317 317 318
301 296 300 296 293 294 296 297 294 292 294 297 297 297 299 299 298 300 303 303 302 302 301 301 301 294 295 295 289 292 290 294 293 294 292 289 291 292 291 287 289 291 290 295 297 302 305 308 311 311 311 312 313 310 309 309 314 315 312 312 312 312 313 312 312 312 312 312 312 313 313 313 312 312 312 313 314 315 314 314 315 314 315 316 316 316 317
302 299 296 302 295 293 295 291 290 292 294 294 296 297 298 298 299 299 304 307 305 300 297 295 294 292 289 291 289 283 289 294 291 288 288 289 292 291 289 289 290 293 297 299 300 302 305 309 310 310 310 310 310 309 309 310 312 311 311 312 312 312 312 312 312 312 313 313 313 318 314 312 312 313 314 314 314 313 313 314 316 315 315 316 316 316 317
291 289 292 297 300 299 298 297 297 296 296 297 297 299 300 299 300 301 305 302 301 296 294 297 295 288 287 286 291 292 295 292 289 290 289 290 293 289 289 290 292 294 298 299 301 304 309 308 308 311 307 308 312 309 309 310 311 311 311 311 311 311 311 311 311 312 312 313 312 312 312 313 313 314 314 314 314 312 311 311 313 314 315 315 315 316 316
Wind_Speed
19 20 20 19 20 21 21 22 21 21 22 8 7 5 2 3 2 3 10 9 8 4 1 2 2 4 4 4 10 10 7 4 7 4 1 3 0 1 2 0 3 2 2 4 2 1 3 2 1 1 4 3 4 4 5 7 9 5 3 2 2 3 2 1 4 5 5 7 7 6 3 2 1 3 3 2 3 5 6 7 3 0 2 3 1 1 4
19 20 20 20 20 21 21 21 21 19 15 6 7 2 2 2 2 3 4 4 2 2 2 3 4 5 6 5 11 11 6 5 3 1 2 0 2 1 1 1 3 0 1 5 3 3 2 6 7 3 2 2 4 10 9 10 3 2 1 1 2 1 2 4 2 4 7 9 10 8 8 4 1 3 4 7 6 6 4 2 3 1 1 7 5 3 3
19 19 19 20 20 21 21 21 21 18 14 8 3 2 2 4 3 3 2 4 0 1 3 1 6 6 9 10 12 13 9 4 4 2 4 3 2 3 2 0 2 3 3 6 3 5 5 0 5 4 4 1 1 9 9 6 4 2 3 5 2 4 0 2 1 0 2 3 3 4 5 6 5 3 2 4 3 5 1 2 1 2 1 4 4 1 4
18 18 18 19 20 21 21 21 21 20 16 8 2 2 1 4 3 1 1 1 2 3 3 4 4 9 9 9 9 6 6 6 4 3 2 2 3 1 4 4 5 2 5 5 5 6 7 5 2 4 5 5 4 5 7 1 2 2 7 5 4 1 1 2 2 4 5 8 7 6 1 3 3 8 8 7 7 2 2 4 3 3 4 4 4 9 4
18 19 19 19 20 21 21 22 22 22 19 5 3 1 1 1 3 3 3 3 2 7 4 5 3 5 4 5 4 10 12 8 5 3 0 1 1 3 3 2 2 4 6 3 5 6 6 7 5 6 3 3 2 6 8 3 2 7 3 5 4 2 1 2 1 2 5 6 7 10 5 6 8 6 9 9 5 3 3 4 5 6 8 1 2 5 9
19 20 20 20 21 22 22 23 23 24 22 3 4 2 1 2 1 2 0 2 2 3 6 1 6 11 8 6 4 7 9 8 2 3 1 3 5 2 4 9 4 5 5 3 3 3 4 4 4 5 5 2 7 6 8 2 5 7 2 3 2 4 2 3 1 3 5 7 8 9 7 6 6 7 8 7 10 4 4 5 7 8 7 6 2 5 7
20 21 22 22 22 23 23 23 24 25 25 1 3 3 4 2 1 1 6 1 3 2 10 11 10 12 7 3 2 4 7 9 6 3 2 2 3 3 1 5 12 12 9 8 4 5 3 5 4 5 7 5 5 5 6 6 11 6 3 2 1 3 1 2 1 4 6 8 8 8 8 7 8 9 10 9 8 5 3 5 7 10 11 10 10 6 3
21 21 21 21 22 22 22 23 24 25 26 3 0 6 2 4 2 4 4 4 6 5 3 6 7 7 7 4 3 4 4 6 7 3 3 2 6 5 5 5 11 12 14 11 10 6 4 4 4 3 5 8 4 4 1 3 9 7 3 0 3 3 2 4 1 1 4 6 6 7 8 6 6 8 9 9 8 6 5 7 11 13 9 8 12 10 5
20 20 20 19 20 21 21 21 22 24 22 5 5 2 4 3 1 1 3 5 5 4 5 7 7 4 9 10 12 12 6 7 4 6 9 9 5 7 7 4 9 10 13 12 10 5 4 5 3 1 3 2 1 2 3 3 5 8 4 2 3 2 2 2 2 3 6 5 5 8 8 8 5 6 7 12 9 6 4 9 1 9 7 10 11 7 2
19 20 20 18 19 19 20 19 20 21 18 4 3 3 3 3 2 3 1 1 3 5 6 5 5 6 6 7 13 6 4 11 11 3 7 7 9 8 9 4 9 7 13 9 7 6 5 5 5 3 3 3 4 2 3 1 2 2 4 0 1 1 1 2 1 2 2 7 4 6 5 5 8 11 13 10 7 10 9 9 9 9 11 11 8 5 3
19 19 18 18 18 18 19 19 18 18 13 8 5 4 5 6 6 5 2 1 5 6 6 5 6 3 9 12 14 15 6 9 10 6 2 5 8 7 8 7 5 3 6 2 5 3 4 3 4 5 7 7 8 9 8 9 7 3 1 3 1 1 1 1 2 0 3 6 5 3 4 5 3 7 10 9 10 14 14 10 12 9 8 4 3 3 2
18 19 18 17 17 17 18 18 17 15 12 7 3 3 4 3 4 1 2 2 4 4 4 2 5 7 11 12 10 9 11 11 7 3 3 3 4 5 7 6 5 3 3 4 3 5 7 8 10 10 9 9 8 9 10 8 9 8 3 3 3 5 1 3 2 1 2 3 6 7 2 1 5 2 8 11 10 17 14 12 9 8 10 11 10 6 5
18 18 19 18 17 17 17 17 16 16 13 8 4 3 4 2 2 1 1 1 1 4 6 7 9 9 9 12 12 9 9 7 9 10 7 8 8 10 6 4 4 1 1 3 6 7 4 2 4 3 5 7 8 8 9 9 11 11 9 4 3 3 5 0 2 1 1 3 2 2 1 3 5 5 6 4 1 5 17 14 13 8 4 10 7 4 5
18 18 18 18 17 17 16 16 16 16 16 11 6 3 4 3 3 3 2 2 3 3 3 6 8 12 13 10 10 10 9 13 7 9 8 7 11 13 12 8 3 4 2 3 6 4 4 5 3 5 6 5 5 3 4 7 8 10 12 11 6 6 2 1 4 1 1 2 1 4 4 4 9 6 10 6 2 4 12 7 5 7 4 7 5 5 4
17 17 18 18 17 17 16 15 15 16 16 14 6 5 4 4 3 0 1 1 1 4 1 5 8 11 9 4 8 7 7 6 9 6 3 4 6 3 5 10 10 9 4 6 3 4 1 1 1 2 4 3 1 2 4 2 2 8 12 10 7 5 5 4 2 2 1 1 3 5 5 2 6 3 10 5 4 5 4 14 3 4 8 1 7 5 4
17 17 18 17 16 15 15 14 14 15 15 15 6 5 6 3 3 1 1 1 0 2 3 4 8 7 3 2 5 3 5 4 6 3 5 5 6 9 9 11 9 7 3 3 1 1 1 1 1 0 2 2 2 2 3 4 3 3 2 4 8 5 2 5 6 3 2 1 0 1 1 2 3 9 8 11 9 4 1 11 5 6 4 6 4 6 5
16 17 17 16 15 15 14 14 15 15 14 13 6 6 5 2 3 3 2 2 1 4 4 6 8 4 4 5 9 7 7 5 5 3 4 6 5 5 10 12 8 5 8 5 5 2 2 1 0 1 3 2 0 1 4 2 3 5 8 7 3 2 1 1 1 2 3 2 1 3 1 0 5 8 7 9 9 1 6 6 3 6 7 3 3 7 7
16 16 17 16 15 15 14 14 15 15 15 13 7 4 5 5 2 3 1 0 0 4 3 6 9 6 5 2 2 2 2 3 6 3 1 3 2 5 7 6 8 6 6 3 2 2 1 0 1 1 2 5 1 1 0 3 3 2 2 2 2 3 2 4 8 6 4 7 3 1 1 3 4 6 9 10 3 7 9 4 2 3 4 3 4 5 4
15 16 16 15 15 15 15 16 16 16 15 15 11 3 3 3 6 3 0 1 1 3 6 8 6 1 3 3 1 1 2 2 1 2 3 5 2 7 8 4 2 4 7 2 2 1 1 2 1 1 1 5 4 3 3 3 3 3 2 5 5 5 2 3 3 3 1 1 1 1 2 3 3 6 6 6 7 5 2 3 3 2 1 2 4 6 3
15 15 15 14 15 15 16 16 17 16 16 15 8 2 8 7 7 2 4 1 0 4 7 5 4 4 5 4 5 4 7 5 3 4 2 1 4 8 5 2 6 3 5 3 3 2 2 1 2 2 3 2 1 1 2 3 2 2 3 0 3 3 2 2 2 1 2 4 4 3 1 3 7 6 6 10 8 2 4 2 6 3 4 5 6 5 3
14 15 15 14 14 15 15 16 17 17 16 15 10 3 6 4 5 5 4 2 0 2 7 2 3 5 4 4 4 3 2 2 2 2 1 1 3 2 2 1 4 2 2 2 1 2 1 2 3 1 1 0 4 3 1 3 6 4 1 1 2 1 3 2 2 1 2 1 2 1 2 4 6 4 6 2 3 2 1 3 5 4 3 3 4 4 2
13 14 14 13 13 14 15 16 16 16 15 14 12 2 2 5 6 5 5 1 2 5 6 6 2 8 11 10 9 9 8 7 1 2 1 2 3 1 1 0 0 1 0 1 3 3 3 1 1 2 3 3 4 1 2 4 4 5 6 4 3 4 1 1 2 2 2 1 1 1 2 2 4 6 5 4 4 5 5 6 4 4 3 1 4 3 5
13 13 13 13 13 14 15 15 15 15 15 13 9 2 3 6 7 7 7 3 2 3 4 5 4 7 8 9 12 11 9 6 2 3 5 3 3 3 2 2 2 2 1 2 2 2 1 1 1 1 1 0 2 5 3 1 0 4 5 3 2 2 2 2 4 2 2 5 3 0 7 7 7 7 5 5 7 8 10 9 7 6 4 3 4 4 4
12 13 13 13 13 14 15 16 16 13 13 12 6 2 4 5 7 6 5 1 0 5 3 1 1 4 6 5 1 3 2 1 2 3 3 4 1 2 2 0 0 2 2 2 2 1 1 1 2 0 1 3 3 1 2 4 2 2 2 5 3 4 4 3 2 1 4 1 5 11 5 5 8 8 8 8 8 7 8 9 8 6 6 6 5 5 4
12 12 13 13 14 14 15 15 16 14 12 12 11 4 4 4 3 4 5 3 4 3 0 5 3 3 7 10 1 3 2 3 2 3 3 3 4 2 2 1 0 2 1 3 1 3 1 1 3 2 1 5 1 4 2 2 5 2 5 4 3 6 4 2 3 3 6 4 3 3 5 4 4 6 7 6 7 9 8 7 6 7 6 7 5 3 3
11 12 12 13 14 14 15 15 15 13 13 14 8 3 2 4 5 6 4 1 1 1 1 2 5 5 9 9 4 3 2 1 4 3 1 2 2 5 2 1 2 1 0 0 0 0 1 0 1 1 1 4 1 0 1 1 5 3 0 4 3 3 3 1 1 2 4 2 1 1 4 10 9 9 8 5 5 8 8 8 9 9 9 7 6 5 4
11 11 12 12 13 14 15 15 14 13 14 14 8 5 3 5 6 3 2 5 1 1 1 2 5 8 9 11 7 4 3 3 4 3 1 1 2 1 0 0 2 3 1 2 1 1 1 1 2 1 2 3 1 2 2 4 0 2 3 6 3 3 4 2 3 4 1 2 2 2 0 1 7 7 6 5 3 6 7 7 8 8 7 5 5 6 6
10 11 11 11 12 13 13 15 14 14 14 15 8 6 4 2 4 3 4 1 3 1 1 3 5 9 8 6 4 3 4 3 3 4 3 3 4 3 2 2 2 0 1 1 3 2 1 0 3 3 1 3 2 4 3 2 0 0 0 4 1 3 1 2 2 1 3 5 3 3 8 5 2 1 5 8 4 5 9 6 5 5 5 4 5 5 6
10 10 11 11 12 13 14 14 14 13 15 12 6 6 4 2 2 3 6 6 3 1 2 4 4 3 1 4 9 8 5 2 4 2 0 2 1 1 5 3 3 2 0 0 1 0 1 3 1 1 1 1 1 3 3 2 1 1 2 2 5 2 3 2 4 3 2 0 1 1 2 4 2 3 5 5 5 6 6 4 4 4 4 5 5 3 2
10 10 10 10 12 13 13 14 14 12 12 7 4 2 2 0 2 4 6 5 4 1 1 2 2 3 3 4 5 5 3 5 3 1 1 1 2 2 2 4 3 3 1 1 1 1 1 1 2 2 2 1 2 1 1 1 0 4 3 1 4 3 3 2 0 5 3 1 0 2 3 1 1 4 4 5 4 5 6 6 5 4 3 4 5 5 1
11 11 11 11 13 13 13 13 13 11 8 4 2 2 0 0 1 1 7 6 5 1 0 1 4 5 6 4 3 6 4 1 4 4 5 4 4 4 3 2 1 3 0 0 1 2 1 2 1 2 1 1 1 0 1 0 1 3 2 3 4 6 5 5 8 7 4 2 1 1 3 3 4 4 7 7 6 6 6 5 8 9 9 9 10 6 3
11 10 10 11 12 13 13 14 13 9 3 1 1 1 1 1 2 7 10 7 5 1 1 2 2 2 2 3 2 3 3 3 4 2 1 3 3 3 4 2 3 3 3 3 2 0 1 3 1 2 3 2 2 1 0 1 0 4 5 4 4 5 4 7 7 7 9 7 5 9 10 9 10 8 4 6 6 6 6 5 6 6 8 8 10 10 8
10 10 11 11 12 13 14 14 14 8 5 7 11 14 17 20 20 16 7 4 1 1 0 1 1 1 1 4 4 2 0 1 2 1 2 1 3 2 1 1 1 0 3 1 0 2 2 2 1 2 5 0 0 0 0 2 3 4 10 3 3 5 5 4 5 7 8 8 9 9 4 4 4 4 4 7 8 8 7 6 4 7 9 11 11 11 12
11 11 11 11 13 14 14 14 14 13 7 2 3 2 3 9 10 12 3 0 1 1 0 0 1 1 3 5 1 3 3 1 3 1 2 2 2 3 3 2 0 1 1 3 2 0 3 1 1 2 2 2 0 1 1 3 4 5 5 7 1 2 4 5 6 8 9 8 6 6 4 2 2 5 10 10 9 6 5 7 9 8 7 7 6 6 4
9 10 10 12 13 14 16 13 4 0 1 2 3 3 2 4 2 2 4 0 1 1 0 1 1 1 3 3 0 2 2 0 2 2 2 2 1 3 1 2 1 1 2 1 1 2 2 4 4 1 3 1 0 1 2 3 5 4 4 3 4 6 3 6 4 4 4 5 6 6 5 7 8 7 6 6 7 8 9 7 6 6 7 5 5 4 4
8 10 11 13 17 12 5 1 2 0 0 1 3 3 3 3 3 1 1 1 1 1 1 1 1 1 0 0 1 1 2 1 2 2 1 1 2 1 0 3 1 6 2 3 2 1 1 1 1 2 1 0 3 3 5 3 2 1 2 3 1 3 3 5 5 3 4 5 6 5 6 6 6 4 4 4 4 5 6 7 8 6 5 5 5 5 5
8 9 11 12 6 1 1 2 1 2 2 1 2 2 1 1 0 0 0 0 1 0 1 0 1 4 2 1 1 2 2 2 3 2 3 2 1 2 1 1 1 1 1 1 0 2 6 1 1 0 0 2 4 6 6 5 3 6 5 4 4 4 4 3 4 5 5 6 6 5 5 5 4 2 3 2 2 2 4 6 5 5 5 5 5 5 4
8 9 3 3 2 1 1 1 1 2 1 1 2 1 1 1 0 0 0 0 1 1 1 0 3 4 2 1 1 4 1 2 2 2 2 1 2 2 1 1 1 1 1 1 4 5 1 1 2 3 3 4 2 3 2 2 4 4 3 3 2 2 2 2 2 4 4 4 4 2 3 4 3 1 2 1 0 1 1 1 2 2 2 4 3 3 3
4 2 1 1 0 1 1 2 2 3 2 2 1 1 1 0 0 0 1 1 1 1 2 3 4 3 2 0 4 3 2 0 3 3 2 3 1 3 1 1 1 1 1 1 3 1 1 1 1 1 3 2 2 2 1 6 5 4 3 3 2 2 2 1 2 5 5 3 2 1 2 3 2 1 1 1 2 1 1 1 2 3 3 4 4 4 2
1 1 1 1 2 3 5 3 4 2 1 1 0 1 0 0 1 1 1 1 1 2 2 3 4 4 6 5 2 1 2 2 2 1 0 5 0 1 1 0 2 1 1 0 2 1 1 1 0 1 1 0 1 0 1 4 5 4 3 3 3 3 3 4 4 3 4 3 2 2 2 2 2 2 1 1 1 3 3 3 3 3 4 4 5 4 3
1 1 1 2 3 4 5 7 4 1 0 0 0 0 0 1 2 1 1 1 1 2 2 3 1 1 2 1 2 1 3 1 1 1 1 1 2 1 1 0 0 1 1 1 2 1 1 0 1 2 3 3 1 1 2 4 4 3 3 4 4 4 4 4 4 4 4 4 4 4 4 3 3 2 2 1 2 3 3 3 4 4 4 4 5 5 4
0 1 2 3 4 4 4 1 0 1 0 1 0 1 2 2 1 1 1 2 3 1 2 2 1 2 3 4 3 3 1 0 1 1 1 1 2 1 1 1 1 1 1 2 1 1 0 1 1 2 1 0 0 1 3 4 3 3 3 4 4 4 4 4 4 4 4 3 3 3 3 3 4 4 3 3 3 3 4 4 5 4 4 4 4 5 6
10 7 2 1 2 1 1 1 1 1 0 0 2 2 1 0 2 2 1 1 1 2 2 2 1 1 1 3 2 1 1 0 1 1 1 1 1 0 1 1 0 0 2 2 1 0 0 1 2 2 1 1 1 3 3 3 2 3 3 3 3 3 3 3 4 3 3 3 3 3 2 3 3 3 2 3 3 4 4 3 4 5 5 5 5 6 6
3 1 0 1 0 2 1 1 1 1 1 0 2 1 1 1 5 1 1 2 1 1 2 5 3 4 2 1 2 1 1 2 2 1 0 1 1 0 1 1 2 4 0 1 0 1 3 1 2 2 2 0 2 2 2 2 3 3 3 4 4 4 4 4 4 3 5 4 4 4 4 4 3 3 3 3 3 4 4 4 4 5 5 5 6 5 5
1 0 1 1 1 2 1 2 1 1 2 2 2 2 1 2 2 1 2 3 1 3 0 2 4 3 3 1 2 1 1 1 1 1 1 0 1 0 1 2 1 1 1 2 1 2 1 1 1 0 3 4 3 2 1 2 2 2 0 2 3 3 4 4 4 3 3 3 3 3 4 4 4 4 4 3 3 3 4 5 6 5 5 5 5 6 6
0 0 0 2 2 2 1 2 0 1 2 1 2 3 2 5 3 3 2 1 3 4 6 3 3 4 3 0 2 2 0 2 1 1 1 1 1 2 2 0 0 1 1 0 1 2 4 4 5 5 4 4 3 1 1 1 0 1 1 1 2 3 4 3 2 2 2 3 4 4 4 4 4 4 4 4 4 4 4 4 4 4 5 5 6 6 6
1 1 1 0 1 2 1 1 3 3 2 1 2 2 4 7 8 7 2 2 6 4 4 2 3 3 4 1 1 2 1 1 1 1 1 1 2 2 1 1 1 1 1 2 3 3 3 3 4 5 4 2 1 1 2 1 1 2 1 1 2 3 3 3 3 3 3 3 3 4 4 4 4 4 4 5 5 5 4 4 5 5 4 5 6 7 8
0 1 0 1 3 1 2 4 2 4 3 3 6 6 8 4 5 6 2 4 7 6 6 4 2 2 2 1 2 1 1 0 1 2 1 1 1 0 0 0 1 1 1 2 5 4 3 3 5 5 4 4 4 3 2 1 1 1 1 1 2 3 3 3 4 4 4 4 4 4 4 4 4 4 5 5 6 5 4 4 5 5 5 6 6 7 8
1 0 1 1 1 1 2 3 4 5 5 4 5 6 5 7 7 7 7 2 5 5 6 6 3 2 0 1 1 1 1 0 1 2 0 0 1 2 1 2 1 2 2 3 6 5 4 6 6 5 4 3 3 4 3 2 1 1 2 2 3 3 3 3 4 4 4 4 4 4 4 4 4 4 5 5 5 6 5 6 6 6 6 7 7 7 8
0 1 1 1 3 4 4 4 4 4 6 7 7 7 7 6 6 6 3 1 1 4 3 4 2 3 1 1 0 0 1 1 2 0 1 1 2 1 1 3 2 3 3 3 3 2 2 4 5 4 4 5 4 4 4 4 4 3 3 3 3 2 3 4 4 4 4 4 4 4 4 4 5 5 5 6 6 6 6 7 7 7 7 7 8 8 8
1 2 2 2 3 4 4 4 4 7 8 7 7 7 5 6 5 7 6 1 1 3 2 1 1 2 1 1 1 0 3 1 1 1 3 2 1 1 2 3 4 5 7 7 7 6 6 6 6 6 4 4 4 4 5 5 5 5 4 4 3 3 3 4 4 5 5 5 4 5 6 7 7 6 6 5 6 6 7 8 8 8 8 8 7 8 8
0 0 2 3 3 4 5 5 5 6 7 6 4 3 4 7 6 7 5 3 1 1 1 0 2 1 1 1 3 2 0 1 1 1 0 2 1 2 3 4 6 7 7 5 4 2 2 3 2 2 3 2 2 4 4 5 5 5 4 4 4 4 4 5 5 5 5 5 5 6 7 7 7 6 5 5 6 6 7 8 8 8 7 7 7 7 8
Wind_Direction
343 340 341 342 344 344 342 341 344 348 350 3 352 316 344 29 215 287 159 159 138 78 269 241 198 233 235 269 265 252 252 234 269 301 317 353 297 9 42 293 26 22 73 78 110 111 59 43 238 101 133 130 232 282 100 110 111 78 3 347 304 59 39 13 299 312 295 303 294 282 347 320 59 244 226 146 190 179 189 199 198 131 317 56 20 74 249
342 341 343 343 344 343 342 342 344 348 5 351 309 359 28 304 281 333 178 184 121 76 259 304 273 278 291 290 291 285 260 245 279 260 300 236 9 40 329 290 66 333 23 70 22 10 92 32 28 332 24 57 340 61 64 84 64 92 213 128 256 88 291 116 9 3 336 340 348 358 333 57 73 312 250 191 190 216 214 77 43 88 241 157 114 185 264
343 342 342 343 343 342 342 341 341 345 348 350 345 14 309 286 243 245 258 229 41 191 204 282 315 321 315 318 311 330 327 238 237 278 340 340 48 32 335 279 33 9 13 56 64 64 97 195 350 35 1 354 6 60 53 68 108 153 140 113 103 93 197 94 119 162 18 323 317 287 302 290 292 272 281 306 205 230 319 276 314 92 293 117 134 179 254
343 343 342 344 344 342 342 341 340 340 342 339 261 263 353 4 42 283 70 265 315 286 284 287 277 299 311 321 287 263 295 317 312 40 323 317 1 68 360 345 31 22 36 45 30 25 37 70 6 24 6 352 357 360 18 11 101 113 109 117 93 145 109 104 151 146 183 213 225 244 158 327 318 296 298 292 273 218 126 102 82 185 208 160 225 150 166
345 345 346 347 346 345 343 342 340 339 340 328 180 249 167 264 69 9 354 324 236 258 270 269 270 267 297 299 294 319 319 301 307 29 86 19 31 356 32 349 37 3 41 27 62 52 43 9 47 9 36 308 294 328 39 18 189 98 101 140 85 77 25 284 145 189 215 223 244 262 262 268 272 275 289 303 301 264 157 160 222 180 97 196 4 166 128
349 348 347 348 346 347 346 344 343 339 342 40 193 67 231 37 322 68 142 175 258 336 303 273 285 277 260 250 252 277 304 326 315 341 316 356 36 63 330 21 7 102 87 63 53 360 64 47 25 333 358 343 357 12 348 53 339 30 10 21 117 136 182 249 152 286 280 276 270 270 275 252 254 265 273 293 291 284 275 246 196 139 137 187 200 190 145
351 350 349 348 348 349 348 347 346 343 342 69 209 59 309 54 325 343 360 30 268 204 275 298 293 295 285 230 276 301 321 325 338 4 334 33 2 78 58 36 35 26 37 61 49 32 47 12 9 27 352 10 360 7 345 339 7 4 353 25 126 80 292 248 188 279 292 293 295 306 313 301 299 289 287 277 269 279 283 292 122 109 127 142 128 137 125
352 351 350 349 348 349 350 350 350 348 342 341 353 54 54 19 20 322 339 264 284 280 279 291 304 323 331 352 300 310 314 325 357 331 62 36 13 10 49 37 56 58 52 48 56 27 55 55 36 344 33 350 36 326 99 342 325 357 336 36 345 100 286 275 73 2 295 298 316 331 323 306 298 294 275 280 303 349 9 71 100 89 55 84 106 108 102
352 351 350 350 349 350 351 353 354 352 346 49 17 61 40 299 297 323 315 325 284 324 339 338 323 351 359 4 338 322 342 351 336 41 33 55 39 12 21 46 66 50 55 35 31 28 22 10 27 319 53 344 267 76 286 22 337 331 346 26 334 72 264 42 62 28 313 307 346 319 331 332 324 345 340 324 327 358 37 83 57 94 104 90 83 77 72
350 351 352 350 351 350 351 355 357 0 347 43 356 4 300 293 275 300 204 280 311 347 318 312 350 26 342 339 329 311 3 38 23 40 356 15 37 37 32 36 79 39 44 27 357 335 13 352 333 324 278 272 288 193 218 283 274 272 324 260 45 149 95 3 359 31 274 279 336 323 351 19 19 351 331 336 59 81 52 66 64 88 113 100 107 165 220
349 351 351 351 351 351 352 354 358 8 8 28 357 320 331 15 343 347 13 36 316 5 338 339 33 346 335 352 343 340 10 48 59 57 341 351 4 25 38 45 67 92 58 346 278 284 348 334 342 359 359 352 335 326 331 332 308 258 269 337 304 148 107 258 167 136 255 289 326 360 51 52 3 300 354 1 81 88 80 58 69 39 56 104 111 110 12
349 350 349 350 351 352 352 352 355 6 21 2 311 278 258 334 311 194 21 81 273 326 14 319 347 329 353 344 344 345 6 17 26 58 26 341 335 17 25 41 86 43 273 255 340 4 5 5 360 352 351 336 323 314 313 306 296 299 254 232 282 295 306 275 195 197 277 314 16 36 39 155 249 340 46 31 38 82 83 75 59 81 89 85 73 55 64
348 348 349 351 351 352 350 350 352 356 9 358 343 287 292 326 240 336 34 103 266 330 347 327 325 326 338 353 352 357 349 2 24 31 39 6 354 6 13 54 74 190 267 38 38 40 50 348 326 301 303 317 310 305 287 272 274 275 277 197 192 267 283 231 343 169 33 36 41 35 239 231 331 344 67 60 44 32 71 35 19 6 64 97 83 70 52
346 347 349 349 350 351 349 350 351 352 360 1 338 287 287 314 2 20 30 73 301 262 301 290 336 344 348 356 357 337 357 8 352 39 30 2 38 31 12 10 334 283 326 74 52 57 16 35 4 5 321 350 342 342 274 260 239 246 252 254 197 172 114 142 278 300 241 207 126 231 288 356 350 10 345 0 327 285 110 95 357 335 347 79 99 72 50
345 347 348 350 351 349 347 349 351 352 354 357 321 299 305 310 325 128 268 115 223 285 327 35 323 317 314 343 358 349 7 353 9 355 338 6 39 54 16 338 339 340 22 61 19 34 119 94 19 17 326 25 2 283 291 309 289 236 237 241 225 163 193 221 148 290 108 99 356 356 23 357 284 263 277 305 279 254 122 101 23 340 335 336 96 82 61
344 346 348 351 350 346 348 348 352 352 354 354 343 329 290 271 302 13 89 165 84 53 37 319 324 292 303 334 341 11 355 4 347 335 6 10 14 357 350 345 339 348 6 72 99 85 37 96 237 126 228 232 241 303 305 313 310 311 314 232 207 228 141 154 156 208 55 35 166 197 167 235 230 301 308 312 319 225 205 72 24 294 340 315 101 93 73
345 344 347 350 350 347 347 352 351 351 350 6 343 324 289 1 35 337 354 359 103 225 275 332 329 324 22 354 356 17 354 15 349 25 348 354 3 352 327 342 332 21 31 61 12 50 24 21 279 199 268 240 79 227 304 327 330 322 332 13 24 129 112 69 146 184 181 138 144 267 197 208 305 303 305 310 309 282 77 55 295 285 322 305 72 81 81
344 344 345 348 349 346 347 353 353 348 348 350 345 293 278 301 308 331 4 211 330 292 252 19 353 17 14 321 313 294 6 9 358 341 69 299 14 357 332 344 340 347 29 78 25 56 19 117 28 284 270 262 241 353 268 296 312 260 333 320 338 357 3 157 205 198 197 154 221 58 322 296 277 300 306 321 317 59 73 143 232 272 316 336 70 78 88
343 342 343 345 347 346 347 351 351 350 348 352 343 311 265 281 318 336 198 2 46 258 282 346 293 318 317 301 330 20 49 21 337 71 324 3 359 305 283 266 359 355 1 12 55 46 24 280 355 170 207 318 5 358 296 16 301 296 8 19 3 354 23 347 58 33 60 134 109 200 221 240 268 294 330 335 64 43 74 233 212 235 339 10 66 93 90
341 340 342 344 346 347 348 349 349 348 349 351 1 262 274 297 295 332 66 54 5 270 289 282 311 337 349 15 359 13 343 23 35 101 88 221 288 326 27 17 336 38 348 31 49 289 83 347 279 336 22 321 282 251 19 287 294 354 297 226 94 319 75 316 357 327 16 32 60 34 31 293 321 318 15 13 88 192 242 305 10 43 41 36 25 42 3
340 340 341 343 346 348 348 346 345 346 349 350 351 325 330 302 343 354 36 78 113 325 301 290 12 325 309 279 294 293 299 289 341 85 229 199 263 47 83 199 273 344 3 19 84 354 41 342 333 334 275 194 286 48 315 284 322 292 5 51 96 305 88 325 305 172 120 74 71 117 204 245 312 47 101 348 83 185 130 76 48 8 70 74 63 35 44
338 337 341 341 346 347 347 343 343 346 348 354 350 329 278 296 330 326 332 336 177 204 233 276 292 277 269 257 253 250 237 259 266 148 105 1 321 108 200 149 290 332 342 25 33 11 4 299 7 33 344 309 8 340 272 31 6 319 326 43 37 311 107 184 82 357 93 98 142 298 280 312 5 73 111 118 91 78 73 81 85 81 12 7 78 45 39
334 337 340 342 345 347 345 342 342 344 347 351 4 36 274 302 310 319 317 309 300 279 273 285 293 278 273 254 231 224 230 222 118 64 110 100 339 351 88 56 326 313 48 69 149 161 207 122 244 178 327 250 343 314 342 85 297 353 352 314 162 252 240 226 90 15 81 62 31 138 41 31 33 36 47 58 58 58 62 59 58 30 30 33 75 60 60
332 333 341 345 346 346 343 341 342 342 342 345 355 308 295 280 277 331 331 215 83 305 310 263 347 343 354 44 197 223 207 86 109 155 159 121 143 303 339 347 243 24 18 264 186 144 241 166 224 196 182 254 48 32 9 340 336 326 12 344 342 310 354 32 71 305 69 14 341 47 5 19 34 36 39 57 59 63 63 63 58 53 44 42 39 67 73
329 332 340 344 343 343 342 341 340 341 341 345 344 276 243 294 289 22 352 357 349 50 36 312 289 233 348 306 18 71 143 159 139 109 111 99 132 152 193 239 158 144 257 289 19 42 25 73 340 33 67 268 131 283 241 66 302 33 25 286 6 330 341 59 23 41 101 185 220 185 135 93 55 54 39 26 44 53 57 66 68 59 46 46 37 35 44
327 330 334 337 337 338 340 339 339 339 341 340 342 328 326 273 294 327 295 262 266 157 327 319 277 333 355 8 353 302 300 131 110 87 91 157 167 163 196 330 347 358 173 242 87 275 197 348 106 197 107 292 74 154 253 195 245 280 242 258 207 249 7 34 319 57 306 345 324 277 47 36 19 19 36 41 81 80 58 55 55 52 46 27 27 38 37
323 324 325 331 332 336 338 338 337 338 338 337 334 304 263 282 276 272 288 271 359 7 52 276 290 311 358 329 276 286 277 165 131 125 209 297 255 262 266 36 291 345 16 333 277 159 158 153 119 250 190 224 302 265 228 313 158 337 323 281 306 36 9 311 54 64 3 212 214 293 48 338 347 3 16 36 38 84 80 68 59 53 48 30 29 12 15
320 318 320 326 332 335 335 335 335 336 337 333 319 298 254 243 288 313 324 48 87 155 234 286 303 293 301 261 271 302 280 162 133 163 179 218 217 189 163 161 134 79 353 55 354 6 46 94 250 239 243 302 22 311 287 250 121 32 330 262 338 47 305 61 32 149 215 241 259 189 138 153 172 223 30 41 33 84 89 86 77 61 63 64 54 27 13
317 315 315 322 330 332 332 331 332 335 335 338 314 322 322 240 234 15 21 8 57 120 240 265 284 338 14 289 315 312 291 131 103 90 53 332 356 178 203 201 196 181 195 123 163 168 164 231 215 194 242 204 56 264 11 4 14 231 237 338 22 327 309 131 162 126 125 185 313 349 88 117 94 71 68 65 55 68 68 54 60 61 58 49 46 50 53
314 314 314 320 325 327 326 325 328 332 339 337 354 21 34 327 346 33 16 31 14 33 71 18 8 259 324 322 263 271 259 178 132 148 244 283 296 313 218 183 218 201 147 164 144 294 250 256 267 271 264 169 208 219 268 240 238 253 263 359 14 342 349 358 290 135 179 210 27 73 109 77 44 107 78 66 62 76 65 40 31 20 24 46 31 3 335
313 315 315 318 320 321 318 319 321 329 352 348 43 58 44 65 289 310 10 6 356 40 117 146 229 289 320 239 243 272 274 185 169 187 208 207 212 219 234 153 243 137 44 343 67 224 221 283 321 288 329 2 112 117 202 117 282 301 274 6 8 31 20 53 63 40 41 359 155 91 59 19 351 22 19 28 47 69 68 40 35 28 27 23 5 341 331
306 312 315 318 317 314 313 312 313 324 334 8 102 163 178 217 269 310 322 331 346 38 66 6 326 340 273 299 247 217 182 177 176 177 260 162 248 237 271 169 222 191 150 160 214 117 242 215 181 261 307 263 31 234 87 99 184 259 288 38 50 78 73 57 42 42 46 25 45 38 22 10 31 49 13 347 10 29 61 60 45 40 39 42 28 21 4
305 311 314 314 312 310 307 305 303 304 281 265 261 266 267 267 268 271 291 315 15 237 190 77 190 241 303 254 305 322 137 34 8 93 285 209 223 162 258 285 137 343 263 139 293 205 235 183 221 267 258 335 160 226 162 201 213 245 282 314 136 130 115 99 80 58 51 51 69 89 65 31 5 14 48 43 36 26 18 28 27 51 45 43 37 25 18
304 309 312 310 307 303 300 297 295 291 293 328 355 302 264 244 242 254 237 123 224 263 61 112 347 339 264 298 20 286 9 113 251 160 254 293 203 120 220 150 347 131 299 164 248 50 322 48 217 235 333 323 124 73 285 267 247 282 305 325 39 78 71 66 53 74 85 81 75 91 119 131 68 31 28 29 21 16 31 31 28 34 38 51 51 49 33
311 311 310 306 299 298 299 294 302 8 302 259 240 247 280 349 109 114 135 100 57 357 9 283 149 15 339 353 97 270 274 142 296 222 163 263 207 178 220 104 342 114 274 95 35 195 193 221 178 92 256 249 60 225 250 257 293 320 326 10 46 92 60 63 37 84 96 96 90 79 62 54 47 34 26 14 16 11 18 15 27 40 34 16 22 32 41
304 309 308 304 302 298 301 169 146 69 355 252 232 243 275 85 96 318 154 170 143 118 87 259 8 238 195 278 299 278 21 15 257 310 223 146 345 309 113 125 91 247 192 134 203 208 203 227 98 261 260 198 229 195 228 200 220 289 114 90 27 133 144 149 141 108 92 88 91 94 84 73 80 67 38 23 18 15 11 9 5 23 36 18 2 351 11
310 310 312 302 303 43 313 239 189 161 206 218 227 73 2 3 313 129 65 20 309 126 177 242 16 258 188 241 266 282 43 11 347 7 345 41 233 290 66 49 224 257 73 334 303 205 255 205 107 165 268 183 251 227 206 197 183 139 139 149 143 122 128 139 145 116 82 63 62 61 84 92 76 72 68 45 23 25 27 10 346 351 1 354 341 353 337
321 318 327 345 7 338 303 288 211 235 211 292 131 57 345 32 15 328 78 27 243 106 299 96 236 257 304 73 304 265 42 286 33 37 332 301 20 330 16 106 230 58 297 247 243 187 112 98 170 175 253 246 247 355 336 67 85 91 116 115 127 115 123 147 140 100 90 47 33 16 30 45 50 20 76 4 297 34 358 291 294 303 319 318 310 297 307
335 297 322 266 51 291 243 260 228 106 35 315 68 41 317 187 48 339 223 200 78 299 251 148 246 213 152 289 270 302 102 26 17 25 39 286 78 312 14 48 301 62 304 9 300 45 314 317 294 175 253 323 33 327 30 98 98 107 116 125 117 107 112 80 90 104 119 144 179 191 141 117 97 332 306 334 309 298 293 313 304 302 306 296 295 290 284
22 2 278 233 212 253 283 321 10 49 35 45 273 104 273 174 103 252 149 79 300 259 147 239 220 191 178 180 168 302 331 72 74 329 171 308 267 148 266 14 274 80 269 103 254 26 117 269 283 83 289 249 132 5 18 80 90 88 93 83 76 62 58 55 39 54 86 77 89 70 64 72 98 117 113 310 318 340 325 323 297 289 298 301 298 303 295
224 235 312 306 312 317 303 305 311 56 57 357 339 333 352 280 240 217 119 213 200 225 185 189 227 283 265 149 96 118 285 71 193 157 123 224 256 72 48 236 242 64 279 252 283 45 58 12 309 205 233 225 212 150 83 73 71 58 45 56 54 47 42 31 30 32 50 36 22 26 18 30 31 17 357 359 350 319 297 288 295 297 308 320 320 309 297
124 212 267 292 262 271 299 314 131 19 333 205 121 269 199 216 211 277 156 153 235 207 240 177 269 195 242 180 194 143 321 198 119 95 88 2 307 91 222 280 354 123 255 244 275 348 64 247 276 280 264 272 175 94 82 69 50 47 21 32 37 27 35 33 29 353 11 27 24 24 6 14 2 349 331 340 338 328 321 323 320 319 314 305 315 328 329
292 261 181 301 311 272 177 8 280 117 123 333 51 354 319 321 218 179 250 233 272 155 228 174 209 164 331 59 44 22 170 174 109 339 71 238 292 60 67 327 69 317 242 296 49 339 5 240 256 248 229 264 91 88 88 99 70 51 38 18 7 360 31 28 18 358 346 19 6 349 330 338 325 303 311 352 350 342 331 323 318 317 321 321 323 319 318
246 217 93 237 278 289 81 328 241 57 339 236 120 200 255 326 308 305 285 271 235 195 203 149 224 116 188 294 136 261 15 356 27 72 357 277 84 317 34 243 211 238 57 9 15 209 222 214 221 215 231 117 72 88 91 68 74 56 18 354 352 23 21 11 8 6 343 337 349 340 351 351 338 330 339 345 332 324 313 310 307 308 307 313 313 303 301
48 354 232 10 4 258 68 320 281 150 205 249 190 222 191 189 253 178 207 250 117 224 146 78 102 90 151 251 53 33 109 178 313 99 247 97 344 254 118 254 259 30 111 253 284 309 345 291 297 193 173 155 163 188 171 117 117 100 60 350 360 354 359 353 336 350 344 348 327 339 341 328 337 332 326 314 305 295 302 300 298 304 303 301 297 296 291
87 154 88 81 328 298 132 229 187 297 276 172 216 196 243 252 235 262 252 109 78 71 107 130 88 88 93 236 128 213 83 102 64 230 192 80 108 272 243 246 50 342 311 44 259 240 224 231 215 223 204 191 199 205 100 105 17 67 70 11 300 323 314 320 333 330 326 327 337 347 333 334 333 324 311 301 293 294 285 279 282 285 296 302 295 292 295
350 308 212 184 122 266 161 196 238 208 226 269 234 252 264 275 277 241 229 97 106 140 120 67 102 149 146 249 45 346 31 87 140 252 75 67 186 254 8 89 292 203 202 252 234 251 260 244 218 218 211 198 161 135 117 121 62 50 19 348 11 343 336 344 341 333 311 333 343 333 316 309 304 299 300 304 298 283 278 279 284 285 281 276 281 285 288
137 277 41 125 239 205 201 250 230 276 294 288 283 278 262 256 283 298 241 163 154 128 120 117 88 358 21 319 83 203 222 149 84 290 167 210 29 44 16 335 258 255 193 212 244 223 231 234 205 202 208 194 161 136 108 70 16 12 2 340 324 327 323 322 320 310 315 320 308 299 293 291 288 290 291 286 286 289 284 280 276 277 275 273 273 273 273
207 121 145 215 240 284 262 276 324 303 292 302 298 310 325 338 303 277 295 338 124 142 158 119 170 93 256 251 123 68 311 321 118 245 72 41 120 207 161 233 211 277 262 212 244 258 228 214 206 193 192 167 164 148 167 182 188 235 253 262 266 259 273 285 284 281 289 292 280 275 277 275 280 288 292 292 291 284 281 278 279 275 271 270 270 270 268
66 328 308 263 343 311 287 324 21 330 329 336 341 330 334 333 340 324 314 8 17 101 58 37 44 100 210 129 336 350 257 229 179 267 86 189 204 228 162 254 220 207 256 266 242 233 237 197 171 175 182 174 171 173 189 222 227 217 227 236 250 263 274 280 289 291 284 273 269 264 268 281 288 284 278 275 273 277 287 288 282 276 274 269 267 266 266
240 171 230 211 222 256 1 326 309 313 319 313 313 313 340 327 321 310 324 18 39 34 46 143 206 95 48 31 74 30 257 197 67 205 168 207 221 195 201 225 236 215 227 245 244 223 210 190 174 179 179 181 195 205 208 213 213 220 217 219 227 234 249 261 271 276 275 269 269 286 291 286 276 268 264 267 277 284 287 283 277 272 268 269 265 265 265
66 279 259 262 252 260 247 258 269 252 253 263 286 277 332 314 302 299 315 41 67 94 267 223 97 71 77 187 218 196 246 59 221 160 101 265 170 213 231 212 237 235 226 245 285 323 51 46 76 133 163 201 224 233 233 229 222 219 216 224 229 237 248 254 253 252 254 266 272 272 275 276 277 276 273 277 281 285 283 281 280 277 273 268 266 265 268